Miscellaneous Local Product
Issued by NWS North Platte, NE

Home | Current Version | Previous Version | Text Only | Print | Product List | Glossary On
Versions: 1 2 3 4 5 6 7 8 9 10 11 12 13 14 15 16 17 18 19 20 21 22 23 24 25 26 27 28 29 30 31 32 33 34 35 36 37 38 39 40 41 42 43 44 45 46 47 48 49 50
000
AXUS43 KLBF 231610
MISLBF


WESTERN AND NORTH CENTRAL NEBRASKA HOURLY WEATHER ROUNDUP
NATIONAL WEATHER SERVICE NORTH PLATTE NE
1100 AM CDT SAT MAY 23 2015

***STATIONS NOT REPORTING VARIABLES SUCH AS SKY/WEATHER OR
PRESSURE ARE PROVIDED BY THE NEBRASKA DEPARTMENT OF
ROADS...RAWS...AND APRS NETWORKS...AND ARE NOT UNDER
NATIONAL WEATHER SERVICE QUALITY CONTROL***

...OBSERVATIONS IN AND NEAR THE EASTERN PANHANDLE OF NEBRASKA...

CITY           SKY/WX    TMP DP  RH WIND       PRES   REMARKS
PINE RIDGE     CLOUDY    53  47  79 E9        30.06R
CHADRON        CLOUDY    54  49  83 E7        30.05R
ALLIANCE       CLOUDY    53  51  93 SE14      30.03S
SIDNEY         CLOUDY    52  51  97 E9        30.03F FOG
WHITECLAY        N/A     51  47  86 SE10        N/A
BIG SPRINGS      N/A     55  54  96 SE12        N/A
$$

...OBSERVATIONS IN NORTH CENTRAL NEBRASKA...

CITY           SKY/WX    TMP DP  RH WIND       PRES   REMARKS
VALENTINE      CLOUDY    56  53  90 SE9       30.09F
THEDFORD       CLOUDY    56  54  91 SE12      30.10S
AINSWORTH      CLOUDY    55  55  97 S10       30.10F
O`NEILL        CLOUDY    56  55  95 SE5       30.15S FOG
ORD            CLOUDY    54  51  90 S8        30.12S
BROKEN BOW     CLOUDY    55  53  93 SE13      30.10F FOG
BROWNLEE         N/A     57  55  94 E12         N/A
VALENTINE NWR    N/A     54  54  99 SE9         N/A
SPRINGVIEW       N/A     54  52  94 SE5         N/A
BREWSTER         N/A     58  55  92 S12         N/A
ROSE             N/A     52  52  99 E13         N/A
NEWPORT          N/A     54  53  95 SE10        N/A
SARGENT          N/A     53  52  96 SE3         N/A
COMSTOCK         N/A     57  57  99 S10         N/A
EWING            N/A     56  53  90 S3          N/A
$$

...OBSERVATIONS IN SOUTHWEST NEBRASKA AND FAR NORTHEAST COLORADO...

CITY           SKY/WX    TMP DP  RH WIND       PRES   REMARKS
WRAY           CLOUDY   N/A N/A N/A SE14G22   30.01S
IMPERIAL       CLOUDY    54  52  93 SE16      30.03S FOG
OGALLALA       CLOUDY    54  54  99 SE13      30.05S FOG
NORTH PLATTE   CLOUDY    54  52  93 SE10      30.07F
MCCOOK         CLOUDY    54  53  97 SE12      30.06F FOG
LEXINGTON      CLOUDY    55  54  97 SE10      30.11S FOG
PAXTON           N/A     54  53  97 E12         N/A
GOTHENBURG       N/A     53  51  94 SE9         N/A
CALLAWAY         N/A     53  53  99 SE16        N/A
$$

...NORTH PLATTE AREA...

CITY           SKY/WX    TMP DP  RH WIND       PRES   REMARKS
AIRPORT        CLOUDY    54  52  93 SE10      30.07F
DOWNTOWN         N/A     54  52  94 SE7         N/A
$$

...SOME WEATHER OBSERVATIONS FROM AROUND THE REGION...

CITY           SKY/WX    TMP DP  RH WIND       PRES   REMARKS
DENVER         CLOUDY    54  49  83 VRB3      30.02F
LARAMIE        PTSUNNY   48  41  76 SE16      30.01F
CHEYENNE       CLOUDY    50  43  77 S13       30.03S
SCOTTSBLUFF    CLOUDY    52  50  93 E9        30.03S
RAPID CITY     CLOUDY    50  46  86 SE10      30.07S
PIERRE         CLOUDY    54  49  83 E14       30.11F
WINNER         CLOUDY    55  51  86 SE14      30.12S
SIOUX FALLS    CLOUDY    61  52  72 SE12      30.18F
OMAHA          CLOUDY    61  54  77 S15       30.20S
GRAND ISLAND   CLOUDY    55  52  89 SE10      30.14F
KANSAS CITY    CLOUDY    63  57  81 S12       30.21F
WICHITA        LGT RAIN  59  57  93 SE10      30.13F VSB 1
HAYS           CLOUDY    55  48  76 S13       30.16R
LIBERAL        CLOUDY    57  52  82 E16G24    29.98F
GOODLAND       CLOUDY    52  52 100 S22       30.03F
$$



USA.gov is the U.S. government's official web portal to all federal, state and local government web resources and services.